Tiempo cada hora Aligarh

Hoy, 2 Agosto, Lunes

Tiempo Temperatura Precipitaciones Viento Presión Humedad
00:00 +31°C° 0.3 mm 3 mps 732 mmHg 77%
01:00 +31°C° 0.3 mm 3 mps 731 mmHg 77%
02:00 +30°C° 0.3 mm 3 mps 731 mmHg 78%
03:00 +30°C° 1.3 mm 3 mps 731 mmHg 80%
04:00 +30°C° 1.3 mm 3 mps 731 mmHg 82%
05:00 +29°C° 1.3 mm 3 mps 731 mmHg 84%
06:00 +29°C° 2.7 mm 3 mps 732 mmHg 83%
07:00 +30°C° 2.7 mm 3 mps 732 mmHg 83%
08:00 +30°C° 2.7 mm 3 mps 732 mmHg 83%
09:00 +31°C° 1.6 mm 3 mps 733 mmHg 78%
10:00 +33°C° 1.6 mm 4 mps 733 mmHg 73%
11:00 +34°C° 1.6 mm 4 mps 733 mmHg 68%
12:00 +34°C° 0.7 mm 4 mps 732 mmHg 66%
13:00 +35°C° 0.7 mm 3 mps 732 mmHg 63%
14:00 +35°C° 0.7 mm 3 mps 731 mmHg 61%
15:00 +35°C° 0.7 mm 2 mps 731 mmHg 64%
16:00 +34°C° 0.7 mm 2 mps 731 mmHg 67%
17:00 +33°C° 0.7 mm 1 mps 731 mmHg 69%
18:00 +32°C° 0.4 mm 2 mps 732 mmHg 72%
19:00 +31°C° 0.4 mm 2 mps 732 mmHg 74%
20:00 +31°C° 0.4 mm 2 mps 732 mmHg 76%
21:00 +30°C° 0.1 mm 2 mps 732 mmHg 78%
22:00 +30°C° 0.1 mm 2 mps 733 mmHg 79%
23:00 +30°C° 0.1 mm 2 mps 733 mmHg 80%

Mañana, 3 Agosto, Martes

Tiempo Temperatura Precipitaciones Viento Presión Humedad
00:00 +29°C° 0 mm 2 mps 733 mmHg 82%
01:00 +29°C° 0 mm 2 mps 733 mmHg 83%
02:00 +29°C° 0 mm 2 mps 732 mmHg 85%
03:00 +28°C° 0 mm 2 mps 733 mmHg 86%
04:00 +28°C° 0 mm 2 mps 733 mmHg 87%
05:00 +28°C° 0 mm 2 mps 733 mmHg 87%
06:00 +29°C° 0 mm 3 mps 733 mmHg 83%
07:00 +30°C° 0 mm 4 mps 734 mmHg 78%
08:00 +30°C° 0 mm 4 mps 734 mmHg 74%
09:00 +32°C° 0 mm 4 mps 734 mmHg 69%
10:00 +33°C° 0 mm 5 mps 734 mmHg 65%
11:00 +34°C° 0 mm 5 mps 734 mmHg 61%
12:00 +34°C° 0 mm 4 mps 733 mmHg 60%
13:00 +35°C° 0 mm 4 mps 733 mmHg 59%
14:00 +35°C° 0 mm 4 mps 732 mmHg 58%
15:00 +35°C° 0 mm 3 mps 732 mmHg 60%
16:00 +35°C° 0 mm 3 mps 732 mmHg 61%
17:00 +34°C° 0 mm 3 mps 732 mmHg 63%
18:00 +34°C° 0 mm 2 mps 732 mmHg 65%
19:00 +32°C° 0 mm 2 mps 733 mmHg 66%
20:00 +32°C° 0 mm 2 mps 733 mmHg 68%
21:00 +31°C° 0 mm 2 mps 733 mmHg 70%
22:00 +31°C° 0 mm 2 mps 734 mmHg 73%
23:00 +30°C° 0 mm 2 mps 734 mmHg 76%

Pasado mañana, 4 Agosto, Miércoles

Tiempo Temperatura Precipitaciones Viento Presión Humedad
00:00 +30°C° 0.1 mm 2 mps 734 mmHg 78%
01:00 +30°C° 0.1 mm 2 mps 734 mmHg 80%
02:00 +29°C° 0.1 mm 2 mps 733 mmHg 82%
03:00 +29°C° 0 mm 2 mps 733 mmHg 84%
04:00 +29°C° 0 mm 2 mps 733 mmHg 85%
05:00 +28°C° 0 mm 2 mps 734 mmHg 86%
06:00 +29°C° 0 mm 2 mps 734 mmHg 82%
07:00 +30°C° 0 mm 2 mps 734 mmHg 78%
08:00 +31°C° 0 mm 2 mps 735 mmHg 74%
09:00 +32°C° 0 mm 2 mps 735 mmHg 69%
10:00 +34°C° 0 mm 2 mps 735 mmHg 64%
11:00 +35°C° 0 mm 2 mps 735 mmHg 59%
12:00 +36°C° 0 mm 2 mps 734 mmHg 56%
13:00 +37°C° 0 mm 2 mps 733 mmHg 53%
14:00 +37°C° 0 mm 2 mps 733 mmHg 51%
15:00 +37°C° 0 mm 2 mps 733 mmHg 52%
16:00 +37°C° 0 mm 2 mps 732 mmHg 52%
17:00 +37°C° 0 mm 2 mps 732 mmHg 53%
18:00 +36°C° 0 mm 2 mps 733 mmHg 57%
19:00 +35°C° 0 mm 2 mps 733 mmHg 61%
20:00 +34°C° 0 mm 2 mps 733 mmHg 65%
21:00 +34°C° 0 mm 2 mps 733 mmHg 67%
22:00 +32°C° 0 mm 2 mps 734 mmHg 69%
23:00 +32°C° 0 mm 2 mps 734 mmHg 71%

5 Agosto, Jueves

Tiempo Temperatura Precipitaciones Viento Presión Humedad
00:00 +31°C° 1.8 mm 2 mps 733 mmHg 76%
01:00 +30°C° 1.8 mm 2 mps 733 mmHg 80%
02:00 +30°C° 1.8 mm 1 mps 733 mmHg 84%
03:00 +30°C° 0.7 mm 1 mps 733 mmHg 85%
04:00 +29°C° 0.7 mm 1 mps 733 mmHg 85%
05:00 +29°C° 0.7 mm 2 mps 733 mmHg 86%
06:00 +30°C° 0.1 mm 2 mps 734 mmHg 83%
07:00 +31°C° 0.1 mm 3 mps 734 mmHg 79%
08:00 +31°C° 0.1 mm 3 mps 734 mmHg 76%
09:00 +33°C° 0.5 mm 3 mps 734 mmHg 71%
10:00 +34°C° 0.5 mm 2 mps 734 mmHg 67%
11:00 +34°C° 0.5 mm 1 mps 734 mmHg 62%
12:00 +36°C° 0.6 mm 2 mps 734 mmHg 59%
13:00 +37°C° 0.6 mm 2 mps 733 mmHg 57%
14:00 +37°C° 0.6 mm 2 mps 733 mmHg 54%
15:00 +37°C° 0 mm 2 mps 733 mmHg 56%
16:00 +37°C° 0 mm 2 mps 732 mmHg 57%
17:00 +37°C° 0 mm 2 mps 732 mmHg 59%
18:00 +35°C° 0.1 mm 2 mps 733 mmHg 63%
19:00 +34°C° 0.1 mm 2 mps 733 mmHg 67%
20:00 +32°C° 0.1 mm 2 mps 733 mmHg 71%
21:00 +32°C° 0 mm 2 mps 733 mmHg 73%
22:00 +32°C° 0 mm 2 mps 733 mmHg 75%
23:00 +31°C° 0 mm 2 mps 733 mmHg 77%

6 Agosto, Viernes

Tiempo Temperatura Precipitaciones Viento Presión Humedad
00:00 +31°C° 1 mm 2 mps 733 mmHg 79%
01:00 +30°C° 1 mm 2 mps 733 mmHg 80%
02:00 +30°C° 1 mm 2 mps 732 mmHg 82%
03:00 +30°C° 0.4 mm 2 mps 732 mmHg 83%
04:00 +29°C° 0.4 mm 2 mps 733 mmHg 85%
05:00 +29°C° 0.4 mm 2 mps 733 mmHg 87%
06:00 +29°C° 0.2 mm 2 mps 733 mmHg 84%
07:00 +30°C° 0.2 mm 1 mps 734 mmHg 82%
08:00 +30°C° 0.2 mm 1 mps 734 mmHg 80%
09:00 +30°C° 0.4 mm 1 mps 734 mmHg 79%
10:00 +31°C° 0.4 mm 1 mps 734 mmHg 79%
11:00 +31°C° 0.4 mm 1 mps 734 mmHg 79%
12:00 +30°C° 1.6 mm 1 mps 734 mmHg 81%
13:00 +30°C° 1.6 mm 1 mps 734 mmHg 83%
14:00 +29°C° 1.6 mm 1 mps 733 mmHg 86%
15:00 +29°C° 2 mm 1 mps 733 mmHg 88%
16:00 +28°C° 2 mm 1 mps 733 mmHg 90%
17:00 +28°C° 2 mm 1 mps 733 mmHg 93%
18:00 +28°C° 0.5 mm 1 mps 733 mmHg 92%
19:00 +26°C° 0.5 mm 0 mps 734 mmHg 92%
20:00 +26°C° 0.5 mm 0 mps 734 mmHg 92%
21:00 +26°C° 0 mm 0 mps 734 mmHg 92%
22:00 +26°C° 0 mm 0 mps 734 mmHg 92%
23:00 +28°C° 0 mm 1 mps 734 mmHg 92%

7 Agosto, Sábado

Tiempo Temperatura Precipitaciones Viento Presión Humedad
00:00 +28°C° 0 mm 1 mps 734 mmHg 91%
01:00 +28°C° 0 mm 1 mps 734 mmHg 91%
02:00 +28°C° 0 mm 1 mps 733 mmHg 91%
03:00 +28°C° 0.3 mm 1 mps 734 mmHg 91%
04:00 +28°C° 0.3 mm 1 mps 734 mmHg 91%
05:00 +28°C° 0.3 mm 1 mps 734 mmHg 91%
06:00 +28°C° 0.4 mm 1 mps 735 mmHg 87%
07:00 +29°C° 0.4 mm 1 mps 735 mmHg 84%
08:00 +30°C° 0.4 mm 2 mps 736 mmHg 80%
09:00 +30°C° 0.6 mm 2 mps 736 mmHg 82%
10:00 +29°C° 0.6 mm 2 mps 736 mmHg 84%
11:00 +29°C° 0.6 mm 2 mps 736 mmHg 86%
12:00 +30°C° 0.1 mm 2 mps 736 mmHg 82%
13:00 +30°C° 0.1 mm 1 mps 735 mmHg 79%
14:00 +31°C° 0.1 mm 1 mps 735 mmHg 75%
15:00 +31°C° 0.6 mm 2 mps 735 mmHg 77%
16:00 +30°C° 0.6 mm 2 mps 734 mmHg 79%
17:00 +30°C° 0.6 mm 2 mps 734 mmHg 81%
18:00 +30°C° 0.6 mm 2 mps 735 mmHg 84%
19:00 +29°C° 0.6 mm 2 mps 735 mmHg 87%
20:00 +28°C° 0.6 mm 2 mps 735 mmHg 91%
21:00 +28°C° 0 mm 2 mps 735 mmHg 90%
22:00 +28°C° 0 mm 1 mps 735 mmHg 90%
23:00 +28°C° 0 mm 1 mps 735 mmHg 90%
Mostrar más

Necesitamos Su Consentimiento

Meteoprog y nuestros Proveedores de Servicios pueden almacenar y acceder a sus datos personales como cookies, identificadores de dispositivo u otras tecnologías similares de su dispositivo y procesar dichos datos para personalizar contenido y anuncios, además de ofrecer funciones de redes sociales y analizar el tráfico.

  • Almacenar y/o acceder a información en su dispositivo

    Se puede almacenar o acceder a cookies, identificadores de dispositivo u otra información de su dispositivo para los fines anteriormente indicados.

  • Anuncios y contenido personalizados, medición de anuncios y contenido, percepciones del público, y desarrollo de productos

    Los anuncios y el contenido pueden personalizarse en base a su perfil. Se pueden añadir más datos para personalizar mejor los anuncios y contenidos. Se puede medir el rendimiento de los anuncios y contenidos. Se puede obtener la percepción sobre el público que ha visto los anuncios y contenidos. Dichos datos pueden usarse para desarrollar o mejorar la experiencia del usuario, sistemas y software.

Al hacer clic en ‘Estoy De Acuerdo’ usted permitirá el uso de las cookies, identificadores de dispositivo, balizas web u otras tecnologías similares indicadas. Su configuración puede cambiarse desde el navegador de su dispositivo.

Para ciertos fines, los intereses legítimos pueden ser considerados por encima del consentimiento. Puede leer más sobre ello en nuestra Política de Privacidad y Cookies.